• Processing (Info)

  • MPEC 2004-F14 : 2004 EO20

    The following Minor Planet Electronic Circular may be linked-to from your own Web pages, but must not otherwise be redistributed electronically.

    A form allowing access to any MPEC is at the bottom of this page.


    Read MPEC 2004-F13 Read MPEC 2004-F15


    M.P.E.C. 2004-F14                                Issued 2004 Mar. 16, 23:55 UT
    
         The Minor Planet Electronic Circulars contain information on unusual
             minor planets and routine data on comets.  They are published
       on behalf of Commission 20 of the International Astronomical Union by the
              Minor Planet Center, Smithsonian Astrophysical Observatory,
                              Cambridge, MA 02138, U.S.A.
    
             Supported in part by the Steven and Michele Kirsch Foundation
                 Prepared using the Tamkin Foundation Computer Network
    
                                  MPC@CFA.HARVARD.EDU
              URL http://cfa-www.harvard.edu/iau/mpc.html  ISSN 1523-6714
    
                                       2004 EO20
    
    Observations:
         K04E20O* C2004 03 15.27330 10 23 40.34 +06 13 47.7          20.2   EF014704
         K04E20O  C2004 03 15.28408 10 23 39.54 +06 14 05.1          20.3   EF014704
         K04E20O  C2004 03 15.29482 10 23 38.75 +06 14 20.7          20.0   EF014704
         K04E20O 5C2004 03 16.39225 10 22 27.04 +06 42 46.3          19.5 R EF014673
         K04E20O 5C2004 03 16.39444 10 22 26.84 +06 42 50.7                 EF014673
         K04E20O 5C2004 03 16.40799 10 22 25.96 +06 43 09.8                 EF014673
         K04E20O 5C2004 03 16.41285 10 22 25.60 +06 43 18.1                 EF014673
         K04E20O  C2004 03 16.84300 10 22 01.08 +06 54 13.5                 EF014246
         K04E20O  C2004 03 16.84389 10 22 00.95 +06 54 15.5                 EF014246
         K04E20O  C2004 03 16.84869 10 22 00.24 +06 54 24.4                 EF014246
         K04E20O  C2004 03 16.93126 10 21 54.65 +06 56 29.0                 EF014557
         K04E20O  C2004 03 16.93346 10 21 54.46 +06 56 33.0                 EF014557
         K04E20O  C2004 03 16.93568 10 21 54.31 +06 56 36.1                 EF014557
    
    Observer details:
    246 Klet Observatory-KLENOT.  Observer M. Tichy.  1.06-m KLENOT Telescope
        + CCD.
    557 Ondrejov.  Observer L. Sarounova.  0.65-m f/3.6 reflector + CCD.
    673 Table Mountain Observatory, Wrightwood.  Observer J. Young.  0.6-m
        reflector + CCD.
    704 Lincoln Laboratory ETS, New Mexico.  Observers M. Blythe, F. Shelly,
        M. Bezpalko, R. Huber, L. Manguso, D. Torres, R. Kracke, M. McCleary,
        H. Stange, A. Milner.  Measurers J. Stuart, R. Sayer, J. Evans, J. Kommers.
        1.0-m f/2.15 reflector + CCD.
    
    Orbital elements:
    2004 EO20
    Epoch 2004 Mar. 16.0 TT = JDT 2453080.5                 MPC
    M 269.19630              (2000.0)            P               Q
    n   0.73713686     Peri.   88.26309     -0.03121326     +0.99951275
    a   1.2136793      Node   179.94807     -0.94544401     -0.02950165
    e   0.0492591      Incl.    4.50727     -0.32428591     -0.01019436
    P   1.34           H   21.6           G   0.15
    From 12 observations 2004 Mar. 15-16.
    
    Ephemeris:
    2004 EO20                a,e,i = 1.21, 0.05, 5                   q = 1.1539
    Date    TT    R. A. (2000) Decl.     Delta      r     Elong.  Phase     V
    2004 03 16    10 22.89   +06 32.9    0.235    1.217   159.2    16.9    19.8
    2004 03 26    10 15.10   +10 30.6    0.246    1.210   146.3    27.3    20.2
    2004 04 05    10 14.14   +13 28.4    0.264    1.202   135.1    36.0    20.6
    2004 04 15    10 19.92   +15 18.9    0.288    1.195   125.8    42.9    20.9
    2004 04 25    10 31.54   +16 06.6    0.314    1.187   118.3    48.2    21.3
    2004 05 05    10 47.81   +16 00.1    0.341    1.181   112.3    52.2    21.5
    2004 05 15    11 07.45   +15 08.9    0.368    1.174   107.4    55.3    21.8
    2004 05 25    11 29.63   +13 39.7    0.394    1.169   103.3    57.5    22.0
    
    Timothy B. Spahr             (C) Copyright 2004 MPC           M.P.E.C. 2004-F14
    

    Read MPEC 2004-F13 Read MPEC 2004-F15


    MPEC number:

    Enter an MPEC number in one of the following forms:

    • 1997-B01 (the full form)
    • J97B01 (the packed version of the full form)
    • B01 (the abbreviated form)